Volver al catálogo

COSMOS 2139

GLONASS

ActivoNavegaciónMEO
NORAD 21216·PAYLOAD·🇷🇺 Russia

Lanzado Apr 4, 1991 desde Baikonur Cosmodrome

Loading…

Próximos Pases (próximas 24 horas)

TLE

ActualizadoSource: Space-Track

Época: Sep 14, 2026, 02:40 UTC

1 21216U 91025A   26257.11138448 -.00000038  00000-0  00000-0 0  9993
2 21216  64.3024 301.2816 0017702 220.6566 139.2810  2.13105675275826

Sigue COSMOS 2139 en tiempo real con AllMySat

Download on the App Store